This demonstration page uses our WeatherBlox Daily Observations layout. Learn more.

Left ArrowRight Arrow

39.08367, -84.50855

Hourly Observations for May 18, 2016

Temp ( °F °C ) Dew Point ( °F °C ) Humidity (%) Winds ( mph kmh ) Pressure ( in mb ) Visibility ( mi km ) Precip ( " mm )
12:53 am 00:53 Cloudy 51 10.6 51 10.6 100 100 Calm 30.14 1021 7 11 0.01 0.25
1:34 am 01:34 Cloudy with Light Rain 52 11 52 11 100 100 Calm 30.15 1021 5 8 0.00 0.00
1:46 am 01:46 Cloudy with Light Rain 52 11 52 11 100 100 Calm 30.12 1020 6 10 0.00 0.00
1:53 am 01:53 Cloudy with Light Rain 51 10.6 51 10.6 100 100 Calm 30.14 1021 6 10 0.01 0.25
2:53 am 02:53 Cloudy with Light Rain 51 10.6 51 10.6 100 100 Calm 30.13 1020 4 6 0.02 0.51
3:53 am 03:53 Cloudy with Light Rain 51 10.6 51 10.6 100 100 NNE 8 13 30.11 1020 5 8 0.02 0.51
4:53 am 04:53 Cloudy with Light Rain 51 10.6 51 10.6 100 100 NE 3 6 30.12 1020 6 10 0.01 0.25
5:30 am 05:30 Cloudy with Light Rain 52 11 52 11 100 100 NNE 6 9 30.12 1020 3 5 0.00 0.00
5:53 am 05:53 Cloudy with Light Rain 51 10.6 51 10.6 100 100 NE 6 9 30.12 1020 4 6 0.00 0.03
6:14 am 06:14 Cloudy with Mist and Fog 52 11 52 11 100 100 NE 7 11 30.12 1020 5 8 0.00 0.00
6:53 am 06:53 Cloudy with Mist and Fog 52 11.1 51 10.6 97 97 NE 3 6 30.13 1020 5 8 0.00 0.03
7:32 am 07:32 Cloudy with Mist and Fog 52 11 52 11 100 100 NNE 6 9 30.15 1021 6 10 0.00 0.00
7:53 am 07:53 Cloudy with Mist and Fog 53 11.7 52 11.1 96 96 NE 6 9 30.15 1021 6 10 0.00 0.00
8:33 am 08:33 Cloudy 54 12.2 51 10.6 90 90 NNE 12 19 30.15 1021 8 13 0.00 0.00
8:42 am 08:42 Mostly Cloudy 55 12.8 51 10.6 87 87 NE 10 17 30.15 1021 10 16 0.00 0.00
8:53 am 08:53 Mostly Cloudy 55 12.8 51 10.6 87 87 NE 10 17 30.16 1021 10 16 0.00 0.00
9:53 am 09:53 Mostly Cloudy 57 13.9 50 10 78 78 NE 9 15 30.17 1022 10 16 0.00 0.00
10:53 am 10:53 Mostly Cloudy 59 15 49 9.4 69 69 NE 14 22 30.16 1021 10 16 0.00 0.00
11:53 am 11:53 Sunny 63 17.2 49 9.4 60 60 ENE 14 22 30.16 1021 10 16 0.00 0.00
12:53 pm 12:53 Partly Cloudy 64 17.8 48 8.9 56 56 ENE 9 15 30.14 1021 10 16 0.00 0.00
1:53 pm 13:53 Mostly Cloudy 65 18.3 47 8.3 52 52 NE 9 15 30.14 1021 10 16 0.00 0.00
2:53 pm 14:53 Cloudy 65 18.3 46 7.8 51 51 NNE 10 17 30.13 1020 10 16 0.00 0.00
3:53 pm 15:53 Cloudy 66 18.9 47 8.3 50 50 NNE 5 7 30.12 1020 10 16 0.00 0.00
4:53 pm 16:53 Mostly Cloudy 66 18.9 45 7.2 47 47 NE 7 11 30.11 1020 10 16 0.00 0.00
5:53 pm 17:53 Mostly Cloudy 66 18.9 45 7.2 47 47 ENE 6 9 30.10 1019 10 16 0.00 0.00
6:53 pm 18:53 Mostly Cloudy 66 18.9 46 7.8 49 49 E 5 7 30.10 1019 10 16 0.00 0.00
7:53 pm 19:53 Partly Cloudy 67 19.4 43 6.1 42 42 N 8 13 30.10 1019 10 16 0.00 0.00
8:53 pm 20:53 Clear 61 16.1 41 5 48 48 N 6 9 30.12 1020 10 16 0.00 0.00
9:53 pm 21:53 Mostly Cloudy 57 13.9 45 7.2 64 64 VRB 3 6 30.13 1020 10 16 0.00 0.00
10:53 pm 22:53 Clear 53 11.7 45 7.2 74 74 ENE 3 6 30.15 1021 10 16 0.00 0.00
11:53 pm 23:53 Clear 53 11.7 44 6.7 72 72 NE 5 7 30.16 1021 10 16 0.00 0.00

Powered by AerisWeather